QPF
0.00 0.00 0.00 0.00 0.01 0.01 0.01 0.01 0.00 0.01 0.01 0.01 0.00 0.00 0.00 0.00 0.01 0.02 0.01 0.01 0.01 0.01 0.02 0.02 0.02 0.02 0.02 0.03 0.05 0.07 0.07 0.05 0.04 0.04 0.05 0.07 0.07 0.06 0.05 0.04 0.04 0.03 0.02 0.02 0.02 0.01 0.01 0.01 0.01 0.02 0.02 0.02 0.01 0.00 0.00 0.00 0.00 0.00 0.00 0.00 0.00 0.00 0.00 0.00 0.00 0.00 0.00 0.00 0.00
0.00 0.00 0.00 0.01 0.01 0.01 0.01 0.01 0.01 0.01 0.01 0.01 0.00 0.00 0.00 0.00 0.01 0.01 0.01 0.01 0.01 0.01 0.01 0.02 0.02 0.03 0.04 0.04 0.05 0.06 0.06 0.06 0.06 0.05 0.05 0.08 0.08 0.08 0.07 0.07 0.06 0.04 0.03 0.02 0.03 0.02 0.02 0.02 0.02 0.02 0.01 0.01 0.01 0.00 0.00 0.00 0.00 0.00 0.00 0.00 0.00 0.00 0.00 0.00 0.00 0.00 0.00 0.00 0.00
0.00 0.00 0.00 0.01 0.01 0.01 0.01 0.01 0.01 0.02 0.02 0.02 0.01 0.01 0.00 0.00 0.00 0.00 0.00 0.00 0.01 0.01 0.01 0.01 0.01 0.02 0.03 0.04 0.04 0.06 0.08 0.07 0.07 0.06 0.06 0.06 0.07 0.07 0.08 0.09 0.09 0.07 0.05 0.04 0.03 0.03 0.03 0.02 0.02 0.01 0.01 0.01 0.00 0.00 0.00 0.00 0.00 0.00 0.00 0.00 0.00 0.00 0.00 0.00 0.00 0.00 0.00 0.00 0.00
0.00 0.00 0.00 0.01 0.01 0.01 0.01 0.01 0.01 0.01 0.02 0.02 0.02 0.01 0.01 0.00 0.00 0.00 0.00 0.00 0.00 0.01 0.01 0.01 0.01 0.01 0.01 0.02 0.02 0.04 0.07 0.08 0.08 0.07 0.06 0.05 0.05 0.06 0.07 0.08 0.08 0.09 0.08 0.06 0.05 0.04 0.03 0.02 0.02 0.01 0.01 0.00 0.00 0.00 0.00 0.00 0.00 0.00 0.00 0.00 0.00 0.00 0.00 0.00 0.00 0.00 0.00 0.00 0.00
0.00 0.00 0.01 0.01 0.01 0.01 0.01 0.01 0.01 0.01 0.01 0.01 0.02 0.01 0.01 0.00 0.00 0.00 0.00 0.00 0.00 0.00 0.01 0.01 0.01 0.01 0.01 0.01 0.01 0.03 0.06 0.08 0.08 0.07 0.06 0.05 0.06 0.06 0.06 0.06 0.06 0.07 0.07 0.07 0.06 0.05 0.04 0.04 0.04 0.03 0.01 0.00 0.00 0.00 0.00 0.00 0.00 0.00 0.00 0.00 0.00 0.00 0.00 0.00 0.00 0.00 0.00 0.00 0.00
0.00 0.00 0.01 0.01 0.01 0.02 0.01 0.01 0.01 0.01 0.01 0.01 0.01 0.01 0.01 0.01 0.01 0.01 0.01 0.01 0.01 0.01 0.00 0.01 0.01 0.01 0.01 0.01 0.01 0.02 0.04 0.06 0.08 0.08 0.07 0.06 0.06 0.06 0.06 0.05 0.05 0.05 0.05 0.05 0.05 0.04 0.03 0.03 0.03 0.02 0.01 0.00 0.00 0.00 0.00 0.00 0.00 0.00 0.00 0.00 0.00 0.00 0.00 0.00 0.00 0.00 0.00 0.00 0.00
0.01 0.01 0.01 0.01 0.02 0.02 0.02 0.01 0.01 0.01 0.01 0.02 0.02 0.01 0.01 0.01 0.01 0.01 0.01 0.01 0.01 0.01 0.00 0.01 0.01 0.01 0.01 0.01 0.01 0.01 0.01 0.04 0.06 0.08 0.09 0.08 0.07 0.07 0.06 0.05 0.04 0.04 0.03 0.03 0.03 0.02 0.02 0.02 0.01 0.01 0.01 0.00 0.00 0.00 0.00 0.00 0.00 0.00 0.00 0.00 0.00 0.00 0.00 0.00 0.00 0.00 0.00 0.00 0.00
0.00 0.00 0.01 0.01 0.01 0.01 0.01 0.01 0.01 0.01 0.02 0.02 0.02 0.02 0.01 0.01 0.00 0.01 0.01 0.01 0.01 0.01 0.01 0.01 0.01 0.01 0.01 0.01 0.01 0.01 0.01 0.03 0.05 0.08 0.10 0.10 0.08 0.07 0.07 0.06 0.06 0.05 0.04 0.03 0.02 0.01 0.01 0.00 0.00 0.00 0.00 0.00 0.00 0.00 0.00 0.00 0.00 0.00 0.00 0.00 0.00 0.00 0.00 0.00 0.00 0.00 0.00 0.00 0.00
0.01 0.01 0.01 0.01 0.01 0.01 0.01 0.01 0.01 0.02 0.02 0.02 0.02 0.02 0.01 0.01 0.01 0.01 0.01 0.01 0.01 0.01 0.01 0.01 0.01 0.01 0.01 0.01 0.01 0.01 0.02 0.04 0.06 0.08 0.09 0.10 0.08 0.07 0.06 0.07 0.07 0.07 0.06 0.05 0.04 0.03 0.01 0.00 0.00 0.00 0.00 0.00 0.00 0.00 0.00 0.00 0.00 0.00 0.00 0.00 0.00 0.00 0.00 0.00 0.00 0.00 0.00 0.00 0.00
0.01 0.01 0.01 0.01 0.01 0.01 0.01 0.01 0.01 0.02 0.02 0.02 0.02 0.02 0.02 0.01 0.01 0.01 0.01 0.01 0.01 0.01 0.01 0.01 0.02 0.02 0.01 0.01 0.01 0.01 0.02 0.05 0.06 0.07 0.08 0.08 0.08 0.07 0.06 0.06 0.05 0.05 0.05 0.05 0.02 0.01 0.01 0.01 0.00 0.00 0.00 0.00 0.00 0.00 0.00 0.00 0.00 0.00 0.00 0.00 0.00 0.00 0.00 0.00 0.00 0.00 0.00 0.00 0.00
0.01 0.01 0.01 0.01 0.01 0.01 0.01 0.01 0.02 0.03 0.04 0.03 0.03 0.03 0.02 0.01 0.01 0.01 0.01 0.01 0.01 0.01 0.01 0.02 0.02 0.02 0.02 0.01 0.01 0.02 0.02 0.04 0.06 0.07 0.07 0.07 0.07 0.07 0.07 0.06 0.05 0.04 0.03 0.01 0.01 0.01 0.01 0.01 0.00 0.00 0.00 0.00 0.00 0.00 0.00 0.00 0.00 0.00 0.00 0.00 0.00 0.00 0.00 0.00 0.00 0.00 0.00 0.00 0.00
0.01 0.01 0.01 0.01 0.01 0.01 0.01 0.01 0.02 0.03 0.04 0.04 0.04 0.03 0.02 0.01 0.01 0.01 0.01 0.01 0.01 0.01 0.01 0.02 0.02 0.02 0.02 0.02 0.01 0.02 0.02 0.04 0.06 0.06 0.06 0.06 0.07 0.07 0.07 0.07 0.04 0.03 0.01 0.01 0.00 0.00 0.00 0.00 0.00 0.00 0.00 0.00 0.00 0.00 0.00 0.00 0.00 0.00 0.00 0.00 0.00 0.00 0.00 0.00 0.00 0.00 0.00 0.00 0.00
0.01 0.01 0.01 0.01 0.01 0.01 0.01 0.02 0.03 0.04 0.04 0.04 0.04 0.02 0.01 0.01 0.01 0.01 0.01 0.01 0.01 0.01 0.01 0.02 0.03 0.03 0.02 0.02 0.01 0.01 0.01 0.02 0.03 0.04 0.04 0.04 0.05 0.05 0.05 0.05 0.03 0.02 0.01 0.00 0.00 0.00 0.00 0.00 0.00 0.00 0.00 0.00 0.00 0.00 0.00 0.00 0.00 0.00 0.00 0.00 0.00 0.00 0.00 0.00 0.00 0.00 0.00 0.00 0.00
0.01 0.01 0.01 0.01 0.01 0.01 0.02 0.03 0.04 0.05 0.04 0.04 0.03 0.02 0.01 0.01 0.01 0.01 0.01 0.01 0.01 0.01 0.01 0.01 0.02 0.02 0.02 0.02 0.01 0.00 0.00 0.00 0.00 0.01 0.02 0.02 0.02 0.03 0.03 0.02 0.01 0.01 0.00 0.00 0.00 0.00 0.00 0.00 0.00 0.00 0.00 0.00 0.00 0.00 0.00 0.00 0.00 0.00 0.00 0.00 0.00 0.00 0.00 0.00 0.00 0.00 0.00 0.00 0.00
0.01 0.01 0.01 0.01 0.01 0.02 0.03 0.04 0.05 0.05 0.05 0.04 0.03 0.02 0.01 0.01 0.01 0.01 0.01 0.00 0.00 0.00 0.00 0.00 0.00 0.01 0.02 0.02 0.01 0.00 0.00 0.00 0.00 0.00 0.00 0.00 0.00 0.01 0.01 0.01 0.00 0.00 0.00 0.00 0.00 0.00 0.00 0.00 0.00 0.00 0.00 0.00 0.00 0.00 0.00 0.00 0.00 0.00 0.00 0.00 0.00 0.00 0.00 0.00 0.00 0.00 0.00 0.00 0.00
0.01 0.01 0.01 0.02 0.03 0.04 0.04 0.05 0.05 0.05 0.04 0.04 0.03 0.02 0.02 0.01 0.01 0.01 0.01 0.00 0.00 0.00 0.00 0.00 0.00 0.00 0.01 0.01 0.00 0.00 0.00 0.00 0.00 0.00 0.00 0.00 0.00 0.00 0.00 0.00 0.00 0.00 0.00 0.00 0.00 0.00 0.00 0.00 0.00 0.00 0.00 0.00 0.00 0.00 0.00 0.00 0.00 0.00 0.00 0.00 0.00 0.00 0.00 0.00 0.00 0.00 0.00 0.00 0.00
0.01 0.01 0.02 0.03 0.03 0.04 0.04 0.05 0.06 0.05 0.04 0.03 0.02 0.02 0.02 0.02 0.02 0.02 0.01 0.01 0.01 0.00 0.00 0.00 0.00 0.00 0.00 0.00 0.00 0.00 0.00 0.00 0.00 0.00 0.00 0.00 0.00 0.00 0.00 0.00 0.00 0.00 0.00 0.00 0.00 0.00 0.00 0.00 0.00 0.00 0.00 0.00 0.00 0.00 0.00 0.00 0.00 0.00 0.00 0.00 0.00 0.00 0.00 0.00 0.00 0.00 0.00 0.00 0.00
0.02 0.02 0.03 0.03 0.03 0.04 0.04 0.05 0.06 0.05 0.04 0.04 0.03 0.03 0.03 0.03 0.04 0.03 0.03 0.03 0.02 0.02 0.01 0.00 0.00 0.00 0.00 0.00 0.00 0.00 0.00 0.00 0.00 0.00 0.00 0.00 0.00 0.00 0.00 0.00 0.00 0.00 0.00 0.00 0.00 0.00 0.00 0.00 0.00 0.00 0.00 0.00 0.00 0.00 0.00 0.00 0.00 0.00 0.00 0.00 0.00 0.00 0.00 0.00 0.00 0.00 0.00 0.00 0.00
0.02 0.02 0.03 0.03 0.03 0.04 0.04 0.05 0.05 0.05 0.05 0.04 0.04 0.04 0.04 0.04 0.05 0.05 0.05 0.05 0.04 0.03 0.03 0.02 0.01 0.00 0.00 0.00 0.00 0.00 0.00 0.00 0.00 0.00 0.00 0.00 0.00 0.00 0.00 0.00 0.00 0.00 0.00 0.00 0.00 0.00 0.00 0.00 0.00 0.00 0.00 0.00 0.00 0.00 0.00 0.00 0.00 0.00 0.00 0.00 0.00 0.00 0.00 0.00 0.00 0.00 0.00 0.00 0.00
0.02 0.02 0.03 0.03 0.04 0.03 0.03 0.04 0.04 0.04 0.04 0.04 0.04 0.04 0.04 0.04 0.05 0.06 0.06 0.06 0.05 0.04 0.04 0.03 0.02 0.01 0.00 0.00 0.00 0.00 0.00 0.00 0.00 0.00 0.00 0.00 0.00 0.00 0.00 0.00 0.00 0.00 0.00 0.00 0.00 0.00 0.00 0.00 0.00 0.00 0.00 0.00 0.00 0.00 0.00 0.00 0.00 0.00 0.00 0.00 0.00 0.00 0.00 0.00 0.00 0.00 0.00 0.00 0.00
0.01 0.02 0.02 0.03 0.03 0.03 0.03 0.03 0.04 0.04 0.04 0.04 0.03 0.03 0.03 0.04 0.04 0.04 0.04 0.05 0.04 0.04 0.03 0.03 0.02 0.01 0.00 0.00 0.00 0.00 0.00 0.00 0.00 0.00 0.00 0.00 0.00 0.00 0.00 0.00 0.00 0.00 0.00 0.00 0.00 0.00 0.00 0.00 0.00 0.00 0.00 0.00 0.00 0.00 0.00 0.00 0.00 0.00 0.00 0.00 0.00 0.00 0.00 0.00 0.00 0.00 0.00 0.00 0.00
0.01 0.01 0.01 0.01 0.02 0.02 0.02 0.02 0.02 0.03 0.03 0.03 0.02 0.02 0.02 0.03 0.02 0.02 0.02 0.02 0.02 0.02 0.02 0.01 0.01 0.00 0.00 0.00 0.00 0.00 0.00 0.00 0.00 0.00 0.00 0.00 0.00 0.00 0.00 0.00 0.00 0.00 0.00 0.00 0.00 0.00 0.00 0.00 0.00 0.00 0.00 0.00 0.00 0.00 0.00 0.00 0.00 0.00 0.00 0.00 0.00 0.00 0.00 0.00 0.00 0.00 0.00 0.00 0.00
0.00 0.00 0.00 0.01 0.01 0.01 0.01 0.01 0.01 0.01 0.02 0.02 0.02 0.01 0.01 0.01 0.01 0.00 0.00 0.00 0.01 0.01 0.01 0.00 0.00 0.00 0.00 0.00 0.00 0.00 0.00 0.00 0.00 0.00 0.00 0.00 0.00 0.00 0.00 0.00 0.00 0.00 0.00 0.00 0.00 0.00 0.00 0.00 0.00 0.00 0.00 0.00 0.00 0.00 0.00 0.00 0.00 0.00 0.00 0.00 0.00 0.00 0.00 0.00 0.00 0.00 0.00 0.00 0.00
0.00 0.00 0.00 0.00 0.00 0.00 0.00 0.00 0.01 0.01 0.01 0.01 0.01 0.01 0.00 0.00 0.00 0.00 0.00 0.00 0.00 0.00 0.00 0.00 0.00 0.00 0.00 0.00 0.00 0.00 0.00 0.00 0.00 0.00 0.00 0.00 0.00 0.00 0.00 0.00 0.00 0.00 0.00 0.00 0.00 0.00 0.00 0.00 0.00 0.00 0.00 0.00 0.00 0.00 0.00 0.00 0.00 0.00 0.00 0.00 0.00 0.00 0.00 0.00 0.00 0.00 0.00 0.00 0.00
0.00 0.00 0.00 0.00 0.00 0.00 0.00 0.00 0.00 0.00 0.00 0.01 0.00 0.00 0.00 0.00 0.00 0.00 0.00 0.00 0.00 0.00 0.00 0.00 0.00 0.00 0.00 0.00 0.00 0.00 0.00 0.00 0.00 0.00 0.00 0.00 0.00 0.00 0.00 0.00 0.00 0.00 0.00 0.00 0.00 0.00 0.00 0.00 0.00 0.00 0.00 0.00 0.00 0.00 0.00 0.00 0.00 0.00 0.00 0.00 0.00 0.00 0.00 0.00 0.00 0.00 0.00 0.00 0.00
0.00 0.00 0.00 0.00 0.01 0.01 0.01 0.00 0.00 0.00 0.00 0.00 0.00 0.00 0.00 0.00 0.00 0.00 0.00 0.00 0.00 0.00 0.00 0.00 0.00 0.00 0.00 0.00 0.00 0.00 0.00 0.00 0.00 0.00 0.00 0.00 0.00 0.00 0.00 0.00 0.00 0.00 0.00 0.00 0.00 0.00 0.00 0.00 0.00 0.00 0.00 0.00 0.00 0.00 0.00 0.00 0.00 0.00 0.00 0.00 0.00 0.00 0.00 0.00 0.00 0.00 0.00 0.00 0.00
0.00 0.00 0.01 0.02 0.02 0.03 0.02 0.01 0.00 0.00 0.00 0.00 0.00 0.00 0.00 0.00 0.00 0.00 0.00 0.00 0.00 0.00 0.00 0.00 0.00 0.00 0.00 0.00 0.00 0.00 0.00 0.00 0.00 0.00 0.00 0.00 0.00 0.00 0.00 0.00 0.00 0.00 0.00 0.00 0.00 0.00 0.00 0.00 0.00 0.00 0.00 0.00 0.00 0.00 0.00 0.00 0.00 0.00 0.00 0.00 0.00 0.00 0.00 0.00 0.00 0.00 0.00 0.00 0.00
0.00 0.01 0.01 0.02 0.03 0.03 0.02 0.01 0.00 0.00 0.00 0.00 0.00 0.00 0.00 0.00 0.00 0.00 0.00 0.00 0.00 0.00 0.00 0.00 0.00 0.00 0.00 0.00 0.00 0.00 0.00 0.00 0.00 0.00 0.00 0.00 0.00 0.00 0.00 0.00 0.00 0.00 0.00 0.00 0.00 0.00 0.00 0.00 0.00 0.00 0.00 0.00 0.00 0.00 0.00 0.00 0.00 0.00 0.00 0.00 0.00 0.00 0.00 0.00 0.00 0.00 0.00 0.00 0.00
0.00 0.01 0.01 0.01 0.01 0.01 0.01 0.00 0.00 0.00 0.00 0.00 0.00 0.00 0.00 0.00 0.00 0.00 0.00 0.00 0.00 0.00 0.00 0.00 0.00 0.00 0.00 0.00 0.00 0.00 0.00 0.00 0.00 0.00 0.00 0.00 0.00 0.00 0.00 0.00 0.00 0.00 0.00 0.00 0.00 0.00 0.00 0.00 0.00 0.00 0.00 0.00 0.00 0.00 0.00 0.00 0.00 0.00 0.00 0.00 0.00 0.00 0.00 0.00 0.00 0.00 0.00 0.00 0.00
0.00 0.00 0.00 0.00 0.00 0.00 0.00 0.00 0.00 0.00 0.00 0.00 0.00 0.00 0.00 0.00 0.00 0.00 0.00 0.00 0.00 0.00 0.00 0.00 0.00 0.00 0.00 0.00 0.00 0.00 0.00 0.00 0.00 0.00 0.00 0.00 0.00 0.00 0.00 0.00 0.00 0.00 0.00 0.00 0.00 0.00 0.00 0.00 0.00 0.00 0.00 0.00 0.00 0.00 0.00 0.00 0.00 0.00 0.00 0.00 0.00 0.00 0.00 0.00 0.00 0.00 0.00 0.00 0.00
0.00 0.00 0.00 0.00 0.00 0.00 0.00 0.00 0.00 0.00 0.00 0.00 0.00 0.00 0.00 0.00 0.00 0.00 0.00 0.00 0.00 0.00 0.00 0.00 0.00 0.00 0.00 0.00 0.00 0.00 0.00 0.00 0.00 0.00 0.00 0.00 0.00 0.00 0.00 0.00 0.01 0.01 0.01 0.00 0.00 0.00 0.00 0.00 0.00 0.00 0.00 0.00 0.00 0.00 0.00 0.00 0.00 0.00 0.00 0.00 0.00 0.00 0.00 0.00 0.00 0.00 0.00 0.00 0.00
0.00 0.00 0.00 0.00 0.00 0.00 0.00 0.00 0.00 0.00 0.00 0.00 0.00 0.00 0.00 0.00 0.00 0.00 0.00 0.00 0.00 0.00 0.00 0.00 0.00 0.00 0.00 0.00 0.00 0.00 0.00 0.00 0.00 0.00 0.00 0.00 0.00 0.00 0.00 0.00 0.01 0.01 0.01 0.01 0.00 0.00 0.00 0.00 0.00 0.00 0.00 0.00 0.00 0.00 0.00 0.00 0.00 0.00 0.00 0.00 0.00 0.00 0.00 0.00 0.00 0.00 0.00 0.00 0.00
0.00 0.00 0.00 0.00 0.00 0.00 0.00 0.00 0.00 0.00 0.00 0.00 0.00 0.00 0.00 0.00 0.00 0.00 0.00 0.00 0.00 0.00 0.00 0.00 0.00 0.00 0.00 0.00 0.00 0.00 0.00 0.00 0.00 0.00 0.00 0.00 0.00 0.00 0.00 0.00 0.00 0.00 0.01 0.00 0.00 0.00 0.00 0.00 0.00 0.00 0.00 0.00 0.00 0.00 0.00 0.00 0.00 0.00 0.00 0.00 0.00 0.00 0.00 0.00 0.00 0.00 0.00 0.00 0.00
0.00 0.00 0.00 0.00 0.00 0.00 0.00 0.00 0.00 0.00 0.00 0.00 0.00 0.00 0.00 0.00 0.00 0.00 0.00 0.00 0.00 0.00 0.00 0.00 0.00 0.00 0.00 0.00 0.00 0.00 0.00 0.00 0.00 0.00 0.00 0.00 0.00 0.00 0.00 0.00 0.00 0.00 0.01 0.01 0.01 0.01 0.00 0.00 0.00 0.00 0.00 0.00 0.00 0.00 0.00 0.00 0.00 0.00 0.00 0.00 0.00 0.00 0.00 0.00 0.00 0.00 0.00 0.00 0.00
0.00 0.00 0.00 0.00 0.00 0.00 0.00 0.00 0.00 0.00 0.00 0.00 0.00 0.00 0.00 0.00 0.00 0.00 0.00 0.00 0.00 0.00 0.00 0.00 0.00 0.00 0.00 0.00 0.00 0.00 0.00 0.00 0.00 0.00 0.00 0.00 0.00 0.00 0.00 0.00 0.00 0.00 0.01 0.01 0.01 0.01 0.01 0.00 0.00 0.00 0.00 0.00 0.00 0.00 0.00 0.00 0.00 0.00 0.00 0.00 0.00 0.00 0.00 0.00 0.00 0.00 0.00 0.00 0.00
0.00 0.00 0.00 0.00 0.00 0.00 0.00 0.00 0.00 0.00 0.00 0.00 0.00 0.00 0.00 0.00 0.00 0.00 0.00 0.00 0.00 0.00 0.00 0.00 0.00 0.00 0.00 0.00 0.00 0.00 0.00 0.00 0.00 0.00 0.00 0.00 0.00 0.00 0.00 0.00 0.00 0.01 0.01 0.02 0.02 0.02 0.02 0.01 0.00 0.00 0.00 0.00 0.00 0.00 0.00 0.00 0.00 0.00 0.00 0.00 0.00 0.00 0.00 0.00 0.00 0.00 0.00 0.00 0.00
0.00 0.00 0.00 0.00 0.00 0.00 0.00 0.00 0.00 0.00 0.00 0.00 0.00 0.00 0.00 0.00 0.00 0.00 0.00 0.00 0.00 0.00 0.00 0.00 0.00 0.00 0.00 0.00 0.00 0.00 0.00 0.00 0.00 0.00 0.00 0.00 0.00 0.00 0.00 0.00 0.00 0.00 0.01 0.02 0.02 0.02 0.02 0.02 0.01 0.00 0.00 0.00 0.00 0.00 0.00 0.00 0.00 0.00 0.00 0.00 0.00 0.00 0.00 0.00 0.00 0.00 0.00 0.00 0.00
0.00 0.00 0.00 0.00 0.00 0.00 0.00 0.00 0.00 0.00 0.00 0.00 0.00 0.00 0.00 0.00 0.00 0.00 0.00 0.00 0.00 0.00 0.00 0.00 0.00 0.00 0.00 0.00 0.00 0.00 0.00 0.00 0.00 0.00 0.00 0.00 0.00 0.00 0.00 0.00 0.00 0.00 0.01 0.02 0.01 0.01 0.01 0.02 0.01 0.00 0.00 0.00 0.00 0.00 0.00 0.00 0.00 0.00 0.00 0.00 0.00 0.00 0.00 0.00 0.00 0.00 0.00 0.00 0.00
0.00 0.00 0.00 0.00 0.00 0.00 0.00 0.00 0.00 0.00 0.00 0.00 0.00 0.00 0.00 0.00 0.00 0.00 0.00 0.00 0.00 0.00 0.00 0.00 0.00 0.00 0.00 0.00 0.00 0.00 0.00 0.00 0.00 0.00 0.00 0.00 0.00 0.00 0.00 0.00 0.00 0.00 0.00 0.01 0.00 0.00 0.01 0.01 0.01 0.00 0.00 0.00 0.00 0.00 0.00 0.00 0.00 0.00 0.00 0.00 0.00 0.00 0.00 0.00 0.00 0.00 0.00 0.00 0.00
0.00 0.00 0.00 0.00 0.00 0.00 0.00 0.00 0.00 0.00 0.00 0.00 0.00 0.00 0.00 0.00 0.00 0.00 0.00 0.00 0.00 0.00 0.00 0.00 0.00 0.00 0.00 0.00 0.00 0.00 0.00 0.00 0.00 0.00 0.00 0.00 0.00 0.00 0.00 0.00 0.00 0.00 0.00 0.00 0.00 0.00 0.00 0.00 0.01 0.00 0.00 0.00 0.00 0.00 0.00 0.00 0.00 0.00 0.00 0.00 0.00 0.00 0.00 0.00 0.00 0.00 0.00 0.00 0.00
0.00 0.00 0.00 0.00 0.00 0.00 0.00 0.00 0.00 0.00 0.00 0.00 0.00 0.00 0.00 0.00 0.00 0.00 0.00 0.00 0.00 0.00 0.00 0.00 0.00 0.00 0.00 0.00 0.00 0.00 0.00 0.00 0.00 0.00 0.00 0.00 0.00 0.00 0.00 0.00 0.00 0.00 0.00 0.00 0.00 0.00 0.00 0.00 0.00 0.01 0.00 0.00 0.00 0.00 0.00 0.00 0.00 0.00 0.00 0.00 0.00 0.00 0.00 0.00 0.00 0.00 0.00 0.00 0.00
MSLP
1011.57 1011.65 1011.69 1011.77 1011.89 1012.05 1012.25 1012.45 1012.57 1012.69 1012.85 1012.97 1013.09 1013.25 1013.37 1013.45 1013.57 1013.73 1013.77 1013.81 1013.89 1013.97 1014.09 1014.21 1014.29 1014.37 1014.37 1014.37 1014.29 1014.17 1014.17 1014.25 1014.33 1014.37 1014.41 1014.45 1014.45 1014.45 1014.49 1014.49 1014.57 1014.61 1014.73 1014.93 1015.05 1015.17 1015.17 1015.21 1015.25 1015.41 1015.57 1015.73 1015.89 1016.01 1016.17 1016.29 1016.37 1016.45 1016.53 1016.65 1016.81 1016.93 1017.01 1017.05 1017.17 1017.29 1017.33 1017.41 1017.49
1011.65 1011.73 1011.73 1011.85 1012.01 1012.17 1012.33 1012.53 1012.73 1012.85 1012.93 1013.05 1013.17 1013.33 1013.45 1013.57 1013.73 1013.89 1013.97 1014.01 1014.05 1014.13 1014.25 1014.37 1014.45 1014.53 1014.57 1014.57 1014.49 1014.41 1014.33 1014.37 1014.49 1014.57 1014.61 1014.65 1014.73 1014.77 1014.81 1014.85 1014.89 1014.97 1015.05 1015.17 1015.25 1015.29 1015.33 1015.33 1015.41 1015.57 1015.81 1016.01 1016.17 1016.33 1016.45 1016.57 1016.57 1016.69 1016.81 1016.97 1017.09 1017.17 1017.29 1017.37 1017.49 1017.57 1017.65 1017.73 1017.77
1011.69 1011.77 1011.93 1012.01 1012.17 1012.29 1012.53 1012.73 1012.85 1012.97 1013.05 1013.17 1013.33 1013.45 1013.57 1013.69 1013.85 1014.01 1014.13 1014.17 1014.21 1014.29 1014.41 1014.49 1014.57 1014.65 1014.69 1014.73 1014.73 1014.65 1014.57 1014.57 1014.69 1014.81 1014.85 1014.89 1014.97 1015.05 1015.13 1015.17 1015.25 1015.29 1015.29 1015.33 1015.45 1015.45 1015.45 1015.45 1015.57 1015.73 1016.01 1016.25 1016.45 1016.57 1016.69 1016.77 1016.85 1016.97 1017.13 1017.25 1017.33 1017.45 1017.49 1017.57 1017.73 1017.81 1017.85 1017.93 1018.01
1011.85 1012.01 1012.13 1012.25 1012.33 1012.49 1012.65 1012.81 1012.89 1013.01 1013.21 1013.41 1013.53 1013.65 1013.73 1013.81 1013.97 1014.17 1014.29 1014.33 1014.41 1014.49 1014.57 1014.61 1014.73 1014.77 1014.81 1014.85 1014.85 1014.85 1014.85 1014.81 1014.89 1015.01 1015.05 1015.13 1015.17 1015.29 1015.41 1015.49 1015.49 1015.53 1015.57 1015.57 1015.61 1015.61 1015.61 1015.65 1015.81 1016.05 1016.33 1016.57 1016.73 1016.77 1016.85 1017.01 1017.09 1017.25 1017.41 1017.53 1017.61 1017.65 1017.73 1017.81 1017.89 1017.97 1018.01 1018.13 1018.17
1012.09 1012.21 1012.33 1012.45 1012.57 1012.69 1012.77 1012.85 1012.97 1013.17 1013.37 1013.57 1013.69 1013.77 1013.89 1013.97 1014.09 1014.25 1014.37 1014.45 1014.57 1014.69 1014.73 1014.77 1014.85 1014.93 1015.01 1015.01 1015.01 1015.01 1015.05 1015.09 1015.13 1015.17 1015.29 1015.33 1015.45 1015.57 1015.65 1015.69 1015.69 1015.69 1015.73 1015.73 1015.77 1015.77 1015.81 1015.93 1016.17 1016.45 1016.73 1016.89 1016.93 1017.01 1017.13 1017.25 1017.37 1017.49 1017.61 1017.73 1017.81 1017.89 1017.93 1018.01 1018.09 1018.17 1018.25 1018.29 1018.37
1012.37 1012.53 1012.61 1012.69 1012.81 1012.89 1013.01 1013.05 1013.21 1013.37 1013.53 1013.69 1013.77 1013.89 1014.01 1014.09 1014.25 1014.37 1014.49 1014.61 1014.77 1014.85 1014.93 1014.97 1015.01 1015.05 1015.13 1015.17 1015.21 1015.29 1015.33 1015.41 1015.45 1015.45 1015.45 1015.57 1015.69 1015.77 1015.85 1015.89 1015.93 1015.93 1015.89 1015.93 1016.01 1016.05 1016.17 1016.29 1016.57 1016.77 1016.93 1017.01 1017.09 1017.25 1017.37 1017.45 1017.57 1017.69 1017.77 1017.89 1018.01 1018.09 1018.17 1018.21 1018.29 1018.37 1018.45 1018.45 1018.53
1012.69 1012.77 1012.85 1012.93 1013.05 1013.17 1013.29 1013.41 1013.49 1013.61 1013.73 1013.85 1013.93 1014.09 1014.21 1014.29 1014.45 1014.57 1014.73 1014.81 1014.93 1015.05 1015.13 1015.21 1015.25 1015.25 1015.29 1015.29 1015.41 1015.49 1015.61 1015.73 1015.77 1015.73 1015.73 1015.89 1015.93 1016.01 1016.13 1016.21 1016.21 1016.21 1016.21 1016.25 1016.29 1016.41 1016.49 1016.61 1016.77 1016.97 1017.05 1017.09 1017.29 1017.49 1017.65 1017.73 1017.77 1017.89 1018.01 1018.17 1018.29 1018.45 1018.49 1018.57 1018.57 1018.65 1018.69 1018.73 1018.73
1013.01 1013.09 1013.17 1013.21 1013.33 1013.49 1013.61 1013.73 1013.73 1013.81 1013.93 1014.13 1014.29 1014.41 1014.53 1014.57 1014.69 1014.77 1014.89 1015.01 1015.17 1015.25 1015.37 1015.45 1015.53 1015.49 1015.49 1015.49 1015.57 1015.73 1015.89 1015.97 1016.01 1016.01 1016.09 1016.17 1016.25 1016.37 1016.45 1016.53 1016.49 1016.49 1016.57 1016.61 1016.69 1016.73 1016.81 1016.85 1017.01 1017.17 1017.25 1017.33 1017.57 1017.77 1017.93 1017.97 1018.01 1018.13 1018.29 1018.45 1018.61 1018.73 1018.81 1018.85 1018.85 1018.89 1018.93 1019.01 1019.01
1013.33 1013.45 1013.53 1013.57 1013.73 1013.85 1013.93 1013.97 1013.97 1014.05 1014.25 1014.49 1014.61 1014.73 1014.81 1014.85 1014.89 1015.01 1015.09 1015.21 1015.37 1015.49 1015.57 1015.69 1015.73 1015.73 1015.73 1015.73 1015.85 1015.97 1016.09 1016.17 1016.25 1016.33 1016.41 1016.45 1016.53 1016.69 1016.77 1016.77 1016.77 1016.85 1016.93 1017.05 1017.05 1017.09 1017.17 1017.29 1017.41 1017.57 1017.65 1017.73 1017.93 1018.09 1018.21 1018.29 1018.33 1018.41 1018.57 1018.73 1018.93 1019.05 1019.13 1019.17 1019.21 1019.21 1019.21 1019.25 1019.29
1013.65 1013.73 1013.85 1013.93 1014.05 1014.17 1014.21 1014.21 1014.29 1014.41 1014.57 1014.81 1014.97 1015.01 1015.09 1015.13 1015.17 1015.25 1015.33 1015.45 1015.57 1015.69 1015.81 1015.89 1015.97 1015.97 1016.01 1016.01 1016.09 1016.17 1016.33 1016.41 1016.49 1016.57 1016.69 1016.77 1016.85 1016.97 1017.01 1017.01 1017.01 1017.17 1017.29 1017.41 1017.41 1017.45 1017.57 1017.69 1017.89 1018.01 1018.09 1018.17 1018.29 1018.41 1018.53 1018.61 1018.61 1018.73 1018.85 1019.05 1019.21 1019.33 1019.41 1019.45 1019.49 1019.45 1019.45 1019.45 1019.49
1013.97 1014.05 1014.13 1014.21 1014.37 1014.41 1014.45 1014.45 1014.61 1014.81 1015.01 1015.13 1015.25 1015.29 1015.37 1015.41 1015.45 1015.57 1015.61 1015.65 1015.73 1015.89 1016.01 1016.13 1016.17 1016.17 1016.21 1016.25 1016.29 1016.45 1016.53 1016.57 1016.73 1016.81 1016.93 1017.05 1017.17 1017.21 1017.29 1017.29 1017.37 1017.49 1017.69 1017.73 1017.73 1017.81 1017.93 1018.09 1018.25 1018.33 1018.45 1018.45 1018.53 1018.65 1018.73 1018.81 1018.85 1019.01 1019.17 1019.33 1019.49 1019.57 1019.65 1019.73 1019.73 1019.69 1019.69 1019.69 1019.65
1014.29 1014.41 1014.49 1014.57 1014.57 1014.61 1014.69 1014.77 1015.01 1015.17 1015.33 1015.45 1015.49 1015.57 1015.73 1015.73 1015.77 1015.77 1015.81 1015.89 1015.97 1016.13 1016.25 1016.33 1016.41 1016.45 1016.45 1016.45 1016.53 1016.61 1016.73 1016.81 1016.85 1016.97 1017.09 1017.21 1017.33 1017.45 1017.57 1017.65 1017.73 1017.89 1018.01 1018.09 1018.13 1018.17 1018.29 1018.45 1018.49 1018.57 1018.69 1018.73 1018.77 1018.85 1018.93 1018.97 1019.05 1019.25 1019.45 1019.61 1019.73 1019.85 1019.89 1019.93 1019.93 1019.89 1019.89 1019.85 1019.81
1014.61 1014.73 1014.81 1014.85 1014.85 1014.89 1015.01 1015.17 1015.33 1015.49 1015.61 1015.69 1015.77 1015.89 1016.01 1016.01 1016.01 1015.97 1016.01 1016.09 1016.21 1016.37 1016.49 1016.61 1016.69 1016.69 1016.65 1016.65 1016.73 1016.85 1016.89 1016.97 1017.01 1017.09 1017.21 1017.37 1017.57 1017.77 1017.93 1018.05 1018.17 1018.25 1018.33 1018.41 1018.45 1018.53 1018.61 1018.73 1018.77 1018.85 1018.93 1019.01 1019.05 1019.09 1019.09 1019.13 1019.25 1019.45 1019.69 1019.85 1019.97 1020.05 1020.13 1020.17 1020.13 1020.05 1020.01 1019.97 1020.01
1014.93 1015.01 1015.09 1015.17 1015.17 1015.25 1015.33 1015.53 1015.69 1015.81 1015.89 1015.97 1016.09 1016.17 1016.21 1016.21 1016.17 1016.17 1016.21 1016.33 1016.45 1016.57 1016.73 1016.85 1016.93 1016.93 1016.85 1016.85 1016.97 1017.01 1017.09 1017.13 1017.17 1017.29 1017.41 1017.57 1017.81 1018.01 1018.21 1018.37 1018.45 1018.57 1018.61 1018.65 1018.73 1018.73 1018.85 1018.97 1019.05 1019.13 1019.17 1019.29 1019.37 1019.41 1019.37 1019.37 1019.49 1019.69 1019.89 1020.01 1020.13 1020.21 1020.29 1020.25 1020.25 1020.21 1020.17 1020.13 1020.17
1015.29 1015.33 1015.41 1015.45 1015.49 1015.57 1015.73 1015.85 1016.01 1016.17 1016.25 1016.29 1016.37 1016.41 1016.37 1016.37 1016.41 1016.41 1016.45 1016.57 1016.69 1016.81 1016.89 1017.01 1017.13 1017.17 1017.13 1017.17 1017.21 1017.29 1017.29 1017.33 1017.37 1017.49 1017.65 1017.81 1018.01 1018.21 1018.41 1018.57 1018.73 1018.81 1018.85 1018.89 1018.89 1018.93 1019.05 1019.17 1019.29 1019.37 1019.45 1019.57 1019.69 1019.73 1019.73 1019.73 1019.81 1019.93 1020.09 1020.17 1020.25 1020.29 1020.33 1020.37 1020.37 1020.37 1020.33 1020.29 1020.33
1015.57 1015.65 1015.73 1015.77 1015.89 1015.97 1016.05 1016.21 1016.33 1016.45 1016.57 1016.61 1016.65 1016.61 1016.57 1016.57 1016.61 1016.65 1016.73 1016.77 1016.89 1017.01 1017.13 1017.21 1017.29 1017.29 1017.33 1017.45 1017.49 1017.53 1017.53 1017.57 1017.65 1017.73 1017.89 1018.05 1018.21 1018.41 1018.57 1018.73 1018.89 1019.01 1019.05 1019.05 1019.05 1019.13 1019.29 1019.45 1019.57 1019.73 1019.85 1019.97 1020.05 1020.13 1020.09 1020.05 1020.05 1020.17 1020.25 1020.37 1020.45 1020.45 1020.53 1020.57 1020.57 1020.57 1020.57 1020.53 1020.53
1015.89 1016.01 1016.05 1016.13 1016.21 1016.29 1016.41 1016.49 1016.65 1016.73 1016.81 1016.85 1016.89 1016.89 1016.89 1016.85 1016.89 1016.97 1017.01 1017.09 1017.17 1017.25 1017.33 1017.41 1017.45 1017.45 1017.53 1017.69 1017.77 1017.81 1017.85 1017.89 1017.93 1018.05 1018.17 1018.29 1018.45 1018.57 1018.77 1018.97 1019.13 1019.21 1019.25 1019.25 1019.29 1019.37 1019.53 1019.73 1019.97 1020.13 1020.25 1020.33 1020.41 1020.45 1020.41 1020.33 1020.29 1020.33 1020.45 1020.57 1020.65 1020.73 1020.81 1020.85 1020.85 1020.81 1020.77 1020.73 1020.73
1016.25 1016.33 1016.41 1016.45 1016.53 1016.61 1016.73 1016.81 1016.89 1016.97 1017.01 1017.09 1017.17 1017.17 1017.21 1017.17 1017.21 1017.29 1017.41 1017.45 1017.49 1017.53 1017.57 1017.65 1017.65 1017.69 1017.77 1017.89 1018.01 1018.09 1018.13 1018.17 1018.21 1018.29 1018.45 1018.57 1018.73 1018.85 1019.01 1019.25 1019.37 1019.45 1019.45 1019.49 1019.53 1019.65 1019.85 1020.09 1020.29 1020.45 1020.57 1020.61 1020.65 1020.65 1020.61 1020.57 1020.57 1020.61 1020.69 1020.81 1020.89 1021.01 1021.09 1021.09 1021.09 1021.05 1021.01 1020.97 1020.97
1016.57 1016.69 1016.73 1016.85 1016.93 1017.01 1017.05 1017.09 1017.17 1017.25 1017.29 1017.33 1017.41 1017.45 1017.53 1017.57 1017.61 1017.69 1017.77 1017.89 1017.89 1017.85 1017.85 1017.89 1017.89 1017.97 1018.01 1018.13 1018.25 1018.29 1018.37 1018.45 1018.49 1018.61 1018.73 1018.85 1019.01 1019.17 1019.33 1019.49 1019.61 1019.69 1019.73 1019.73 1019.85 1019.97 1020.13 1020.29 1020.49 1020.61 1020.69 1020.73 1020.81 1020.81 1020.85 1020.85 1020.85 1020.85 1020.97 1021.09 1021.17 1021.25 1021.29 1021.29 1021.29 1021.29 1021.21 1021.21 1021.21
1016.93 1017.01 1017.17 1017.25 1017.29 1017.29 1017.33 1017.37 1017.49 1017.57 1017.65 1017.65 1017.69 1017.73 1017.85 1018.01 1018.05 1018.13 1018.17 1018.29 1018.25 1018.21 1018.17 1018.17 1018.21 1018.25 1018.33 1018.41 1018.49 1018.57 1018.65 1018.73 1018.77 1018.89 1019.01 1019.17 1019.29 1019.45 1019.57 1019.69 1019.77 1019.89 1019.93 1020.01 1020.09 1020.21 1020.33 1020.49 1020.61 1020.73 1020.77 1020.85 1020.93 1021.01 1021.01 1021.05 1021.13 1021.17 1021.17 1021.29 1021.45 1021.49 1021.53 1021.49 1021.49 1021.45 1021.45 1021.45 1021.45
1017.29 1017.41 1017.49 1017.57 1017.53 1017.53 1017.57 1017.73 1017.89 1017.89 1017.89 1017.93 1017.97 1018.05 1018.17 1018.29 1018.41 1018.49 1018.57 1018.57 1018.57 1018.57 1018.53 1018.57 1018.57 1018.57 1018.65 1018.73 1018.77 1018.85 1018.93 1018.97 1019.05 1019.17 1019.29 1019.41 1019.53 1019.69 1019.77 1019.85 1019.93 1020.01 1020.13 1020.21 1020.29 1020.41 1020.53 1020.65 1020.77 1020.85 1020.97 1021.05 1021.17 1021.21 1021.25 1021.29 1021.29 1021.33 1021.41 1021.49 1021.61 1021.69 1021.73 1021.69 1021.69 1021.65 1021.61 1021.61 1021.57
1017.57 1017.73 1017.73 1017.73 1017.73 1017.77 1017.93 1018.09 1018.17 1018.17 1018.13 1018.17 1018.29 1018.37 1018.45 1018.53 1018.65 1018.77 1018.85 1018.85 1018.85 1018.85 1018.93 1018.93 1018.97 1019.01 1019.01 1019.01 1019.01 1019.09 1019.17 1019.25 1019.37 1019.45 1019.53 1019.61 1019.73 1019.85 1019.97 1020.01 1020.13 1020.17 1020.29 1020.37 1020.49 1020.61 1020.73 1020.85 1021.01 1021.09 1021.17 1021.33 1021.41 1021.45 1021.45 1021.45 1021.45 1021.45 1021.53 1021.61 1021.73 1021.81 1021.85 1021.89 1021.85 1021.81 1021.77 1021.73 1021.65
1017.89 1017.89 1017.97 1018.01 1018.01 1018.09 1018.21 1018.33 1018.41 1018.37 1018.41 1018.49 1018.57 1018.61 1018.65 1018.73 1018.89 1019.05 1019.13 1019.09 1019.09 1019.17 1019.29 1019.29 1019.29 1019.29 1019.29 1019.29 1019.29 1019.33 1019.41 1019.49 1019.57 1019.73 1019.81 1019.89 1019.97 1020.05 1020.13 1020.17 1020.25 1020.33 1020.45 1020.57 1020.73 1020.85 1020.93 1021.05 1021.21 1021.33 1021.45 1021.57 1021.61 1021.65 1021.65 1021.57 1021.57 1021.57 1021.65 1021.73 1021.81 1021.89 1021.93 1021.93 1021.93 1021.89 1021.77 1021.73 1021.65
1018.13 1018.17 1018.21 1018.29 1018.33 1018.45 1018.53 1018.57 1018.57 1018.61 1018.69 1018.81 1018.85 1018.85 1018.89 1019.05 1019.17 1019.29 1019.33 1019.33 1019.37 1019.45 1019.53 1019.57 1019.57 1019.57 1019.57 1019.57 1019.61 1019.61 1019.65 1019.73 1019.81 1019.89 1020.01 1020.13 1020.21 1020.29 1020.33 1020.41 1020.45 1020.53 1020.65 1020.77 1020.85 1020.97 1021.09 1021.21 1021.41 1021.57 1021.69 1021.73 1021.77 1021.77 1021.73 1021.73 1021.73 1021.77 1021.85 1021.89 1021.93 1021.93 1021.93 1021.93 1021.89 1021.77 1021.73 1021.73 1021.69
1018.33 1018.41 1018.53 1018.61 1018.69 1018.77 1018.85 1018.85 1018.85 1018.89 1018.97 1019.05 1019.09 1019.13 1019.17 1019.29 1019.41 1019.45 1019.49 1019.49 1019.57 1019.69 1019.73 1019.73 1019.73 1019.73 1019.81 1019.89 1019.93 1019.97 1019.97 1019.97 1020.01 1020.05 1020.17 1020.33 1020.45 1020.53 1020.53 1020.53 1020.53 1020.57 1020.61 1020.73 1020.89 1021.05 1021.17 1021.37 1021.57 1021.69 1021.77 1021.85 1021.89 1021.89 1021.89 1021.93 1021.97 1022.01 1022.05 1022.05 1022.05 1022.01 1021.89 1021.89 1021.81 1021.77 1021.77 1021.77 1021.73
1018.65 1018.73 1018.85 1019.01 1019.05 1019.09 1019.13 1019.17 1019.17 1019.21 1019.25 1019.29 1019.33 1019.41 1019.49 1019.57 1019.61 1019.61 1019.65 1019.73 1019.85 1019.89 1019.93 1019.97 1020.01 1020.01 1020.09 1020.17 1020.21 1020.25 1020.25 1020.29 1020.29 1020.29 1020.33 1020.45 1020.61 1020.65 1020.65 1020.61 1020.57 1020.61 1020.65 1020.73 1020.93 1021.13 1021.33 1021.49 1021.61 1021.77 1021.89 1021.93 1021.93 1021.97 1022.01 1022.13 1022.17 1022.21 1022.21 1022.17 1022.13 1022.01 1021.93 1021.89 1021.85 1021.85 1021.85 1021.85 1021.85
1019.01 1019.17 1019.29 1019.33 1019.41 1019.45 1019.49 1019.45 1019.45 1019.49 1019.53 1019.57 1019.61 1019.69 1019.73 1019.77 1019.89 1019.89 1019.93 1020.01 1020.09 1020.17 1020.17 1020.21 1020.29 1020.33 1020.41 1020.41 1020.45 1020.45 1020.45 1020.45 1020.45 1020.45 1020.49 1020.57 1020.65 1020.69 1020.69 1020.73 1020.73 1020.69 1020.73 1020.85 1021.01 1021.21 1021.41 1021.57 1021.73 1021.85 1021.93 1022.01 1022.05 1022.09 1022.17 1022.21 1022.25 1022.25 1022.21 1022.17 1022.17 1022.09 1022.01 1022.01 1022.01 1022.01 1022.01 1022.01 1021.97
1019.45 1019.57 1019.65 1019.65 1019.73 1019.85 1019.89 1019.85 1019.77 1019.77 1019.85 1019.89 1019.89 1019.97 1020.01 1020.05 1020.05 1020.13 1020.21 1020.29 1020.33 1020.41 1020.45 1020.57 1020.61 1020.65 1020.69 1020.69 1020.69 1020.65 1020.61 1020.57 1020.57 1020.57 1020.57 1020.61 1020.69 1020.73 1020.77 1020.77 1020.77 1020.77 1020.81 1020.93 1021.13 1021.29 1021.49 1021.61 1021.73 1021.85 1021.97 1022.09 1022.17 1022.21 1022.21 1022.25 1022.21 1022.21 1022.21 1022.17 1022.17 1022.17 1022.17 1022.21 1022.21 1022.21 1022.21 1022.17 1022.13
1019.81 1019.89 1019.93 1019.97 1020.09 1020.17 1020.17 1020.09 1020.09 1020.13 1020.17 1020.21 1020.25 1020.29 1020.29 1020.29 1020.29 1020.41 1020.49 1020.57 1020.57 1020.69 1020.77 1020.89 1020.93 1020.93 1020.93 1020.97 1020.97 1020.89 1020.81 1020.73 1020.73 1020.69 1020.65 1020.65 1020.69 1020.77 1020.81 1020.77 1020.77 1020.85 1020.93 1021.09 1021.25 1021.45 1021.57 1021.69 1021.81 1021.89 1021.97 1022.09 1022.17 1022.25 1022.25 1022.25 1022.25 1022.29 1022.29 1022.29 1022.37 1022.37 1022.37 1022.41 1022.41 1022.41 1022.37 1022.29 1022.21
1020.09 1020.13 1020.17 1020.25 1020.37 1020.41 1020.37 1020.33 1020.37 1020.41 1020.45 1020.45 1020.45 1020.45 1020.49 1020.53 1020.61 1020.69 1020.77 1020.85 1020.97 1021.09 1021.17 1021.21 1021.21 1021.17 1021.21 1021.21 1021.17 1021.09 1021.05 1021.01 1020.97 1020.89 1020.85 1020.85 1020.85 1020.93 1020.93 1020.85 1020.89 1020.97 1021.13 1021.25 1021.41 1021.53 1021.61 1021.73 1021.85 1021.93 1022.01 1022.13 1022.21 1022.29 1022.33 1022.37 1022.37 1022.41 1022.45 1022.49 1022.57 1022.57 1022.57 1022.53 1022.53 1022.45 1022.45 1022.37 1022.29
1020.33 1020.41 1020.45 1020.53 1020.57 1020.61 1020.65 1020.61 1020.61 1020.65 1020.69 1020.73 1020.73 1020.73 1020.77 1020.85 1021.01 1021.09 1021.17 1021.25 1021.37 1021.45 1021.49 1021.45 1021.41 1021.41 1021.45 1021.45 1021.37 1021.33 1021.29 1021.29 1021.17 1021.17 1021.13 1021.13 1021.13 1021.17 1021.17 1021.17 1021.13 1021.17 1021.25 1021.33 1021.45 1021.57 1021.69 1021.77 1021.89 1022.01 1022.09 1022.17 1022.29 1022.45 1022.49 1022.57 1022.57 1022.61 1022.65 1022.69 1022.69 1022.69 1022.69 1022.61 1022.57 1022.53 1022.45 1022.41 1022.29
1020.69 1020.73 1020.73 1020.81 1020.89 1020.93 1020.93 1020.89 1020.97 1021.01 1021.01 1021.01 1021.05 1021.09 1021.17 1021.29 1021.45 1021.57 1021.61 1021.69 1021.73 1021.73 1021.69 1021.61 1021.57 1021.57 1021.61 1021.61 1021.57 1021.57 1021.53 1021.45 1021.45 1021.45 1021.45 1021.41 1021.37 1021.37 1021.37 1021.41 1021.33 1021.29 1021.33 1021.45 1021.53 1021.65 1021.77 1021.89 1022.01 1022.13 1022.25 1022.37 1022.45 1022.57 1022.65 1022.69 1022.73 1022.73 1022.77 1022.77 1022.77 1022.77 1022.73 1022.61 1022.57 1022.53 1022.49 1022.41 1022.29
1021.01 1021.01 1021.05 1021.17 1021.21 1021.25 1021.29 1021.29 1021.33 1021.33 1021.37 1021.41 1021.45 1021.49 1021.61 1021.73 1021.85 1021.89 1021.97 1022.01 1022.01 1021.93 1021.89 1021.89 1021.89 1021.89 1021.89 1021.89 1021.85 1021.77 1021.73 1021.73 1021.73 1021.73 1021.69 1021.61 1021.57 1021.57 1021.57 1021.57 1021.57 1021.45 1021.41 1021.57 1021.65 1021.77 1021.89 1022.05 1022.17 1022.29 1022.37 1022.49 1022.57 1022.73 1022.77 1022.73 1022.77 1022.77 1022.81 1022.81 1022.81 1022.81 1022.77 1022.73 1022.61 1022.57 1022.53 1022.45 1022.37
1021.45 1021.41 1021.45 1021.49 1021.57 1021.57 1021.61 1021.65 1021.69 1021.69 1021.69 1021.73 1021.81 1021.89 1022.01 1022.05 1022.09 1022.17 1022.21 1022.25 1022.25 1022.21 1022.21 1022.21 1022.21 1022.21 1022.21 1022.17 1022.05 1022.01 1021.97 1021.93 1021.97 1021.93 1021.89 1021.81 1021.77 1021.73 1021.73 1021.81 1021.77 1021.53 1021.45 1021.65 1021.77 1021.93 1022.09 1022.21 1022.29 1022.37 1022.45 1022.57 1022.69 1022.77 1022.81 1022.77 1022.81 1022.85 1022.85 1022.85 1022.85 1022.85 1022.81 1022.73 1022.69 1022.61 1022.53 1022.45 1022.41
1021.77 1021.77 1021.81 1021.85 1021.89 1021.89 1021.89 1021.93 1021.97 1021.97 1022.01 1022.01 1022.17 1022.25 1022.29 1022.33 1022.41 1022.45 1022.45 1022.45 1022.45 1022.45 1022.45 1022.49 1022.45 1022.45 1022.45 1022.37 1022.29 1022.25 1022.17 1022.17 1022.17 1022.17 1022.09 1022.01 1021.93 1021.89 1021.89 1021.97 1021.97 1021.73 1021.57 1021.77 1021.93 1022.09 1022.21 1022.29 1022.37 1022.45 1022.49 1022.57 1022.73 1022.81 1022.81 1022.85 1022.85 1022.85 1022.85 1022.85 1022.85 1022.85 1022.77 1022.73 1022.65 1022.57 1022.57 1022.45 1022.37
1022.09 1022.05 1022.05 1022.09 1022.13 1022.17 1022.17 1022.21 1022.25 1022.25 1022.29 1022.37 1022.45 1022.57 1022.57 1022.57 1022.61 1022.65 1022.61 1022.57 1022.57 1022.57 1022.57 1022.61 1022.61 1022.57 1022.57 1022.53 1022.53 1022.49 1022.45 1022.45 1022.41 1022.37 1022.29 1022.21 1022.17 1022.17 1022.17 1022.17 1022.17 1021.97 1021.85 1022.01 1022.13 1022.21 1022.29 1022.33 1022.41 1022.45 1022.57 1022.65 1022.73 1022.85 1022.85 1022.93 1022.93 1022.97 1022.93 1022.85 1022.85 1022.85 1022.81 1022.73 1022.69 1022.61 1022.57 1022.45 1022.29
1022.37 1022.33 1022.29 1022.33 1022.37 1022.45 1022.45 1022.49 1022.49 1022.53 1022.57 1022.69 1022.73 1022.77 1022.81 1022.81 1022.81 1022.81 1022.81 1022.69 1022.69 1022.73 1022.77 1022.77 1022.77 1022.81 1022.81 1022.85 1022.85 1022.85 1022.85 1022.73 1022.61 1022.57 1022.53 1022.45 1022.45 1022.45 1022.45 1022.41 1022.41 1022.29 1022.13 1022.09 1022.17 1022.29 1022.33 1022.41 1022.45 1022.53 1022.61 1022.73 1022.85 1022.89 1022.93 1022.97 1022.97 1023.01 1022.97 1022.93 1022.93 1022.89 1022.85 1022.81 1022.73 1022.65 1022.57 1022.45 1022.29
1022.65 1022.57 1022.57 1022.57 1022.69 1022.73 1022.73 1022.73 1022.73 1022.77 1022.85 1022.89 1022.97 1023.01 1022.97 1022.97 1023.01 1023.01 1023.01 1022.89 1022.93 1022.97 1023.01 1023.01 1023.05 1023.09 1023.13 1023.09 1023.13 1023.13 1023.05 1022.97 1022.85 1022.77 1022.77 1022.73 1022.73 1022.69 1022.65 1022.57 1022.57 1022.45 1022.29 1022.17 1022.17 1022.25 1022.33 1022.41 1022.49 1022.57 1022.73 1022.85 1022.89 1022.97 1023.01 1022.97 1023.01 1023.01 1023.01 1023.01 1022.97 1022.93 1022.89 1022.85 1022.73 1022.69 1022.61 1022.53 1022.29
1022.97 1022.89 1022.85 1022.89 1022.89 1022.93 1022.97 1022.97 1023.01 1023.05 1023.09 1023.13 1023.17 1023.17 1023.17 1023.17 1023.25 1023.29 1023.29 1023.25 1023.21 1023.21 1023.21 1023.29 1023.29 1023.29 1023.29 1023.21 1023.21 1023.21 1023.21 1023.21 1023.13 1023.01 1023.01 1023.01 1022.93 1022.85 1022.77 1022.77 1022.73 1022.65 1022.45 1022.25 1022.21 1022.25 1022.29 1022.41 1022.53 1022.65 1022.77 1022.89 1022.97 1023.01 1023.01 1023.01 1023.01 1023.01 1023.01 1023.01 1022.97 1022.89 1022.85 1022.85 1022.77 1022.73 1022.65 1022.57 1022.41
1023.25 1023.17 1023.17 1023.13 1023.13 1023.17 1023.17 1023.21 1023.29 1023.33 1023.33 1023.33 1023.37 1023.41 1023.45 1023.45 1023.49 1023.53 1023.57 1023.53 1023.49 1023.45 1023.45 1023.45 1023.49 1023.45 1023.33 1023.29 1023.29 1023.33 1023.37 1023.37 1023.37 1023.33 1023.25 1023.17 1023.13 1023.01 1022.93 1022.93 1022.89 1022.81 1022.69 1022.45 1022.37 1022.37 1022.41 1022.45 1022.57 1022.69 1022.85 1022.97 1023.01 1023.01 1023.01 1023.01 1022.97 1022.97 1022.97 1022.97 1022.93 1022.89 1022.85 1022.81 1022.77 1022.73 1022.65 1022.57 1022.45
1023.45 1023.41 1023.37 1023.41 1023.41 1023.41 1023.41 1023.45 1023.53 1023.57 1023.57 1023.57 1023.57 1023.61 1023.61 1023.65 1023.69 1023.73 1023.73 1023.69 1023.69 1023.65 1023.65 1023.65 1023.65 1023.57 1023.53 1023.45 1023.45 1023.49 1023.53 1023.57 1023.57 1023.57 1023.49 1023.41 1023.29 1023.25 1023.17 1023.13 1023.05 1023.01 1022.93 1022.81 1022.65 1022.61 1022.57 1022.57 1022.61 1022.69 1022.81 1022.93 1023.01 1023.01 1023.01 1022.97 1022.89 1022.89 1022.89 1022.89 1022.89 1022.85 1022.81 1022.73 1022.69 1022.61 1022.57 1022.53 1022.45
Thickness
5558 5561 5563 5565 5566 5567 5567 5567 5568 5569 5571 5573 5573 5573 5574 5576 5577 5578 5580 5582 5583 5584 5584 5585 5585 5586 5587 5589 5591 5593 5594 5595 5595 5596 5597 5598 5599 5600 5601 5602 5602 5602 5601 5600 5600 5601 5600 5601 5601 5600 5599 5598 5597 5596 5595 5594 5594 5594 5592 5591 5590 5589 5588 5588 5587 5586 5586 5585 5584
5555 5557 5560 5562 5562 5563 5562 5563 5563 5565 5566 5568 5569 5570 5570 5572 5573 5573 5576 5577 5578 5579 5580 5580 5580 5582 5583 5585 5586 5588 5590 5591 5592 5592 5592 5594 5594 5594 5595 5596 5597 5597 5597 5596 5597 5597 5597 5597 5597 5596 5595 5594 5592 5592 5591 5590 5590 5589 5588 5587 5585 5584 5583 5583 5582 5581 5581 5580 5580
5551 5554 5555 5557 5558 5558 5557 5557 5558 5560 5562 5562 5564 5565 5566 5567 5568 5570 5571 5572 5574 5574 5575 5576 5577 5577 5579 5579 5581 5583 5585 5586 5588 5589 5588 5588 5589 5590 5590 5591 5591 5592 5591 5592 5592 5593 5594 5594 5593 5593 5591 5589 5588 5587 5587 5586 5586 5585 5584 5582 5581 5580 5580 5579 5578 5577 5577 5576 5576
5547 5549 5551 5551 5552 5553 5553 5553 5554 5555 5556 5558 5559 5560 5561 5563 5564 5565 5566 5568 5569 5570 5571 5572 5572 5573 5574 5576 5577 5579 5580 5581 5584 5584 5583 5584 5584 5585 5586 5586 5586 5587 5587 5588 5588 5589 5589 5589 5589 5587 5585 5584 5584 5583 5582 5582 5581 5580 5579 5578 5577 5577 5576 5575 5574 5574 5573 5572 5572
5541 5543 5544 5545 5546 5547 5548 5548 5550 5550 5552 5553 5554 5556 5557 5558 5560 5560 5562 5564 5564 5565 5566 5567 5569 5570 5570 5572 5573 5574 5575 5576 5578 5579 5578 5579 5579 5580 5580 5581 5583 5583 5583 5584 5584 5585 5584 5584 5583 5582 5580 5579 5579 5579 5578 5577 5577 5576 5575 5574 5573 5573 5573 5572 5571 5571 5570 5569 5568
5535 5537 5538 5540 5541 5541 5542 5543 5544 5546 5547 5548 5550 5551 5553 5554 5555 5556 5557 5559 5560 5560 5562 5563 5564 5565 5566 5567 5568 5570 5570 5571 5572 5574 5574 5575 5575 5576 5576 5576 5577 5578 5578 5580 5580 5580 5579 5579 5578 5577 5576 5575 5575 5574 5574 5573 5572 5572 5571 5570 5569 5569 5568 5568 5567 5567 5566 5565 5564
5529 5530 5532 5534 5535 5535 5535 5537 5538 5540 5542 5544 5545 5546 5547 5549 5550 5552 5553 5553 5555 5556 5557 5559 5560 5561 5562 5563 5564 5565 5565 5566 5567 5568 5569 5570 5570 5571 5571 5571 5572 5573 5574 5574 5575 5574 5574 5574 5574 5572 5572 5573 5571 5570 5568 5568 5568 5568 5567 5565 5564 5564 5563 5563 5563 5562 5562 5561 5560
5522 5525 5526 5527 5528 5528 5529 5530 5533 5535 5537 5538 5539 5540 5542 5543 5545 5547 5548 5549 5551 5552 5552 5554 5555 5556 5557 5559 5559 5560 5560 5561 5562 5563 5564 5566 5567 5567 5566 5566 5567 5567 5568 5569 5568 5569 5569 5568 5568 5568 5567 5567 5566 5565 5563 5563 5564 5563 5562 5561 5559 5558 5557 5557 5557 5557 5557 5556 5556
5515 5517 5519 5520 5521 5521 5522 5524 5527 5530 5531 5532 5533 5535 5536 5538 5540 5542 5543 5545 5545 5546 5548 5549 5551 5552 5553 5554 5555 5556 5556 5556 5557 5558 5559 5562 5561 5560 5560 5561 5562 5563 5563 5563 5563 5563 5563 5563 5562 5562 5561 5561 5560 5559 5558 5558 5558 5558 5556 5555 5553 5552 5552 5551 5551 5551 5551 5551 5550
5509 5510 5512 5514 5514 5514 5517 5519 5522 5524 5525 5526 5528 5529 5531 5533 5535 5537 5538 5540 5541 5542 5544 5544 5546 5548 5548 5550 5550 5551 5551 5552 5553 5553 5554 5554 5554 5555 5555 5556 5557 5558 5557 5557 5557 5557 5557 5557 5556 5555 5555 5554 5554 5554 5553 5553 5553 5552 5551 5550 5549 5548 5547 5546 5546 5546 5546 5546 5545
5502 5504 5506 5507 5508 5509 5512 5515 5516 5518 5519 5521 5522 5524 5526 5528 5530 5531 5533 5535 5537 5538 5539 5540 5541 5543 5544 5545 5546 5546 5547 5547 5548 5548 5549 5549 5549 5550 5551 5551 5551 5552 5551 5551 5551 5552 5551 5551 5551 5550 5550 5550 5550 5549 5548 5548 5548 5547 5546 5544 5544 5543 5543 5541 5541 5541 5541 5541 5541
5496 5498 5499 5501 5502 5504 5507 5510 5511 5512 5514 5516 5518 5520 5521 5522 5524 5527 5529 5531 5532 5533 5533 5535 5537 5538 5539 5540 5541 5542 5542 5543 5544 5545 5544 5545 5545 5545 5546 5546 5546 5546 5545 5546 5546 5546 5546 5545 5545 5545 5545 5545 5545 5545 5544 5544 5544 5542 5541 5539 5538 5538 5537 5536 5536 5536 5536 5536 5536
5490 5492 5493 5495 5497 5500 5502 5504 5505 5507 5509 5511 5514 5515 5516 5518 5520 5523 5525 5526 5527 5528 5528 5530 5531 5533 5535 5536 5537 5537 5538 5539 5540 5541 5541 5541 5541 5541 5541 5541 5540 5540 5540 5541 5541 5541 5540 5540 5540 5540 5540 5540 5540 5540 5540 5540 5540 5538 5536 5535 5534 5533 5532 5531 5532 5532 5532 5532 5532
5484 5486 5488 5490 5492 5495 5497 5499 5500 5502 5504 5506 5509 5511 5512 5513 5516 5518 5520 5521 5522 5523 5525 5525 5526 5528 5530 5531 5532 5533 5534 5535 5536 5537 5537 5537 5536 5536 5536 5534 5535 5535 5535 5535 5536 5536 5536 5535 5535 5535 5535 5535 5535 5535 5535 5535 5534 5533 5531 5530 5529 5528 5528 5527 5527 5528 5528 5528 5527
5480 5481 5483 5485 5487 5490 5492 5494 5495 5497 5499 5502 5504 5506 5508 5510 5512 5514 5515 5516 5518 5519 5520 5520 5522 5523 5525 5526 5527 5528 5530 5531 5532 5532 5532 5532 5532 5531 5530 5530 5529 5530 5530 5531 5532 5532 5532 5531 5531 5531 5530 5529 5530 5529 5529 5530 5529 5527 5527 5525 5525 5524 5524 5523 5523 5523 5523 5522 5522
5475 5476 5478 5481 5483 5485 5487 5489 5491 5493 5495 5497 5499 5501 5503 5506 5507 5509 5511 5512 5513 5514 5515 5516 5518 5519 5520 5522 5522 5524 5525 5526 5527 5527 5528 5527 5527 5527 5527 5526 5525 5526 5526 5527 5528 5528 5527 5527 5526 5525 5524 5524 5524 5524 5524 5524 5524 5523 5522 5521 5520 5519 5519 5518 5517 5517 5517 5517 5516
5470 5472 5474 5476 5478 5480 5483 5485 5487 5489 5491 5492 5494 5496 5499 5500 5502 5504 5506 5507 5508 5510 5511 5512 5513 5515 5516 5517 5518 5519 5520 5522 5522 5522 5523 5523 5522 5523 5522 5522 5521 5522 5522 5523 5524 5523 5523 5521 5520 5519 5519 5518 5518 5518 5518 5518 5518 5518 5517 5517 5515 5514 5513 5513 5512 5512 5512 5512 5512
5466 5467 5469 5472 5474 5476 5478 5480 5482 5485 5486 5488 5489 5491 5493 5495 5498 5499 5500 5501 5503 5505 5506 5507 5509 5511 5512 5512 5513 5514 5516 5517 5518 5518 5518 5518 5518 5519 5518 5517 5517 5518 5518 5519 5519 5519 5518 5516 5514 5514 5513 5513 5512 5512 5513 5514 5514 5513 5512 5511 5509 5509 5508 5507 5507 5506 5507 5506 5506
5461 5463 5465 5467 5469 5471 5474 5477 5478 5480 5482 5484 5486 5487 5488 5490 5492 5494 5494 5496 5498 5499 5501 5503 5505 5506 5508 5508 5509 5510 5511 5512 5513 5513 5514 5514 5514 5514 5513 5513 5513 5513 5514 5514 5514 5513 5512 5511 5510 5509 5509 5509 5509 5508 5508 5508 5508 5508 5506 5506 5504 5503 5502 5502 5501 5501 5501 5501 5500
5457 5459 5460 5463 5465 5467 5470 5472 5474 5475 5477 5480 5481 5483 5484 5485 5487 5488 5490 5491 5492 5494 5497 5498 5500 5501 5502 5503 5505 5506 5507 5507 5509 5510 5509 5509 5509 5509 5509 5509 5509 5509 5509 5509 5508 5508 5508 5507 5506 5506 5505 5505 5505 5504 5504 5503 5503 5502 5501 5500 5499 5498 5497 5497 5497 5496 5496 5496 5495
5453 5454 5456 5458 5461 5463 5466 5468 5470 5471 5473 5475 5477 5478 5479 5480 5481 5483 5484 5485 5487 5489 5491 5493 5494 5496 5498 5499 5501 5502 5503 5504 5504 5505 5505 5505 5505 5504 5504 5504 5505 5505 5504 5504 5504 5504 5503 5503 5502 5501 5501 5501 5500 5499 5499 5499 5498 5497 5497 5496 5494 5493 5493 5492 5492 5491 5491 5490 5490
5448 5450 5452 5455 5458 5460 5461 5463 5465 5467 5470 5471 5472 5474 5475 5476 5477 5478 5479 5481 5483 5485 5487 5488 5490 5491 5493 5495 5497 5498 5499 5500 5500 5500 5500 5501 5501 5500 5501 5501 5501 5500 5500 5500 5500 5500 5499 5499 5498 5497 5496 5496 5495 5494 5494 5494 5494 5493 5492 5491 5490 5489 5488 5488 5487 5487 5486 5486 5486
5444 5447 5449 5451 5454 5456 5457 5459 5461 5464 5466 5467 5469 5470 5471 5472 5473 5474 5475 5477 5478 5480 5482 5483 5485 5487 5489 5491 5492 5494 5495 5495 5495 5495 5496 5496 5496 5496 5496 5496 5497 5497 5496 5496 5495 5495 5495 5494 5493 5492 5491 5490 5490 5489 5489 5489 5490 5489 5488 5487 5486 5485 5484 5484 5483 5483 5483 5482 5482
5441 5444 5446 5448 5450 5452 5454 5456 5458 5460 5462 5463 5465 5466 5467 5468 5469 5470 5472 5473 5474 5476 5477 5479 5480 5482 5485 5486 5487 5489 5490 5491 5491 5491 5491 5492 5491 5492 5492 5492 5493 5493 5492 5491 5491 5491 5490 5490 5488 5487 5487 5486 5485 5485 5485 5485 5484 5484 5483 5482 5482 5481 5481 5480 5480 5479 5479 5479 5478
5438 5440 5442 5444 5446 5448 5450 5452 5454 5456 5457 5459 5460 5462 5463 5464 5466 5467 5469 5470 5470 5472 5474 5475 5477 5478 5480 5482 5482 5484 5485 5486 5487 5488 5488 5487 5487 5487 5488 5488 5489 5489 5490 5489 5489 5487 5486 5485 5484 5483 5482 5482 5482 5481 5481 5480 5479 5478 5477 5477 5477 5477 5477 5477 5477 5476 5476 5475 5474
5435 5437 5438 5440 5442 5444 5446 5448 5450 5452 5453 5454 5457 5458 5460 5461 5462 5463 5465 5466 5467 5468 5470 5472 5473 5475 5476 5477 5478 5480 5480 5481 5482 5483 5484 5484 5483 5484 5484 5485 5486 5487 5487 5487 5485 5484 5482 5481 5480 5479 5478 5478 5478 5477 5476 5475 5474 5474 5473 5473 5473 5473 5473 5473 5473 5472 5472 5471 5470
5431 5433 5435 5436 5438 5440 5442 5444 5446 5448 5450 5451 5453 5454 5455 5457 5458 5460 5461 5462 5464 5465 5466 5468 5468 5470 5471 5473 5474 5475 5477 5477 5478 5479 5479 5480 5480 5481 5481 5482 5482 5483 5483 5483 5482 5480 5479 5478 5476 5476 5475 5474 5474 5473 5472 5471 5470 5469 5469 5469 5469 5469 5469 5468 5467 5467 5466 5466 5464
5428 5429 5431 5433 5434 5436 5438 5440 5442 5444 5445 5447 5449 5450 5451 5453 5455 5457 5457 5459 5460 5461 5463 5463 5464 5466 5467 5469 5469 5471 5472 5474 5475 5476 5476 5477 5478 5478 5478 5479 5479 5480 5480 5479 5477 5476 5475 5474 5473 5472 5471 5471 5469 5469 5468 5467 5466 5466 5465 5465 5465 5464 5464 5463 5462 5461 5461 5460 5459
5424 5426 5428 5429 5430 5432 5434 5436 5438 5440 5442 5443 5444 5446 5448 5450 5451 5453 5454 5455 5456 5457 5458 5459 5460 5461 5462 5464 5465 5467 5468 5470 5471 5472 5474 5474 5475 5475 5475 5476 5477 5477 5476 5475 5474 5472 5471 5471 5470 5469 5468 5467 5466 5464 5464 5463 5463 5462 5462 5461 5460 5459 5458 5458 5457 5456 5455 5454 5454
5421 5422 5424 5426 5427 5428 5430 5432 5434 5436 5438 5439 5441 5443 5445 5446 5448 5448 5450 5451 5451 5452 5453 5454 5456 5458 5459 5460 5461 5463 5464 5465 5467 5468 5470 5470 5471 5471 5472 5473 5473 5474 5473 5471 5470 5469 5468 5468 5467 5466 5464 5463 5462 5460 5459 5458 5458 5457 5456 5456 5454 5454 5453 5452 5452 5451 5450 5449 5449
5417 5419 5421 5423 5424 5426 5428 5429 5431 5433 5434 5436 5438 5440 5441 5442 5443 5444 5445 5446 5447 5448 5449 5451 5453 5454 5455 5456 5457 5459 5460 5461 5463 5464 5465 5466 5466 5467 5468 5468 5469 5470 5469 5468 5467 5466 5465 5464 5463 5462 5460 5458 5457 5455 5454 5453 5453 5452 5452 5451 5450 5449 5448 5448 5447 5447 5446 5445 5444
5414 5416 5418 5420 5421 5422 5424 5426 5428 5429 5431 5432 5434 5436 5437 5438 5438 5439 5440 5441 5442 5444 5446 5448 5449 5451 5451 5453 5454 5455 5456 5457 5458 5459 5460 5461 5462 5462 5463 5464 5464 5465 5466 5465 5464 5464 5463 5461 5459 5457 5456 5453 5452 5450 5449 5449 5448 5447 5447 5446 5446 5445 5445 5444 5444 5442 5442 5441 5440
5411 5413 5415 5416 5418 5419 5421 5423 5424 5425 5427 5428 5430 5431 5432 5432 5434 5434 5435 5437 5439 5441 5442 5444 5445 5446 5448 5448 5450 5451 5452 5453 5454 5454 5456 5456 5457 5458 5458 5459 5459 5461 5462 5461 5461 5460 5458 5456 5455 5453 5451 5449 5447 5446 5445 5445 5444 5444 5443 5442 5441 5441 5440 5440 5439 5439 5438 5437 5435
5408 5410 5412 5413 5415 5416 5417 5419 5420 5422 5423 5424 5426 5426 5428 5428 5430 5431 5432 5433 5435 5437 5438 5440 5441 5442 5443 5444 5445 5447 5448 5449 5449 5450 5451 5452 5453 5454 5454 5454 5454 5456 5458 5457 5457 5455 5453 5452 5450 5448 5447 5445 5443 5443 5442 5441 5441 5440 5439 5438 5437 5437 5437 5436 5435 5434 5433 5432 5432
5405 5406 5408 5410 5411 5413 5414 5415 5417 5419 5420 5421 5422 5422 5424 5425 5426 5428 5429 5430 5432 5433 5434 5435 5437 5438 5439 5440 5442 5442 5444 5445 5446 5446 5447 5448 5449 5449 5449 5449 5450 5452 5454 5453 5452 5450 5449 5448 5446 5444 5443 5441 5440 5439 5438 5438 5437 5436 5435 5435 5434 5433 5433 5432 5431 5430 5429 5428 5428
5402 5404 5405 5407 5408 5410 5411 5413 5415 5416 5417 5418 5419 5420 5421 5422 5423 5425 5426 5428 5429 5430 5431 5432 5433 5435 5435 5436 5437 5439 5439 5440 5441 5442 5443 5444 5444 5445 5445 5445 5445 5447 5449 5448 5447 5446 5445 5444 5442 5441 5439 5438 5436 5435 5434 5434 5432 5432 5431 5431 5430 5430 5429 5428 5427 5427 5426 5425 5425
5399 5401 5403 5404 5406 5407 5408 5410 5411 5413 5414 5415 5416 5417 5418 5419 5421 5422 5423 5425 5427 5427 5428 5429 5430 5431 5431 5432 5433 5433 5434 5435 5436 5438 5439 5440 5440 5440 5440 5440 5440 5441 5443 5444 5443 5442 5441 5440 5438 5438 5436 5434 5432 5431 5430 5430 5429 5428 5427 5427 5426 5425 5425 5424 5423 5423 5423 5421 5421
5396 5399 5401 5402 5403 5404 5406 5407 5409 5410 5411 5412 5413 5414 5415 5416 5417 5419 5420 5422 5423 5423 5424 5425 5425 5426 5426 5427 5428 5429 5430 5431 5433 5434 5434 5434 5435 5435 5435 5436 5436 5437 5438 5439 5439 5438 5438 5437 5435 5433 5432 5430 5429 5427 5427 5426 5426 5425 5424 5423 5422 5422 5421 5420 5420 5419 5418 5417 5417
5394 5396 5398 5400 5401 5402 5403 5405 5406 5407 5408 5409 5410 5411 5412 5413 5414 5415 5416 5418 5419 5420 5421 5421 5421 5422 5423 5424 5425 5425 5426 5427 5428 5429 5430 5430 5431 5431 5432 5432 5432 5432 5434 5435 5436 5435 5434 5433 5432 5430 5428 5426 5425 5424 5424 5423 5422 5422 5421 5420 5419 5419 5418 5417 5416 5415 5414 5413 5413
5392 5393 5395 5397 5399 5399 5401 5402 5403 5404 5405 5406 5408 5409 5409 5410 5411 5412 5413 5413 5415 5416 5417 5417 5418 5419 5420 5421 5422 5423 5423 5423 5424 5424 5425 5426 5426 5427 5428 5428 5427 5428 5429 5430 5430 5430 5430 5429 5428 5426 5424 5423 5422 5421 5421 5420 5420 5419 5418 5417 5416 5416 5414 5414 5413 5411 5410 5410 5410
5390 5392 5394 5395 5396 5397 5399 5399 5400 5401 5402 5403 5405 5406 5407 5408 5408 5409 5410 5411 5412 5413 5414 5414 5415 5416 5417 5418 5419 5419 5420 5420 5420 5421 5421 5422 5423 5423 5424 5424 5423 5423 5424 5425 5425 5425 5425 5424 5424 5423 5422 5420 5419 5419 5418 5418 5417 5417 5416 5415 5413 5412 5412 5411 5410 5409 5408 5407 5406